Voltar ao catálogo

H-2A DEB

AtivoGTO
NORAD 28237·DEBRIS·🇯🇵 Japan

Lançado Feb 4, 2002 de Tanegashima Space Center

Loading…

TLE

ObsoletoSource: Space-Track

Época: Sep 13, 2026, 20:51 UTC

1 28237U 02003D   26256.86907361  .00004067  00000-0  41279-2 0  9990
2 28237  28.2875 140.5990 7089026 128.7063 318.7861  2.47750101211996

Acompanhe H-2A DEB em tempo real com AllMySat

Download on the App Store